Location: Colonia Mina de C?rbuni
(46.1667°N, 22.7167°E)
Time: 22:24:21
(UTC+00:00)

Tiros 1 - Pass Details

Date: 26 April 2024
Orbit: 624 x 657 km, 48.4° (Epoch: 20 May)

Event Time Altitude Azimuth Distance (km) Brightness Sun altitude
Rises 23:33:13 0° 282° (WNW) 2,934 - -28.1°
Reaches altitude 10° 23:35:34 10° 284° (WNW) 2,019 - -27.9°
Maximum altitude 23:40:13 72° 9° (N) 666 - -27.7°
Exits shadow 23:42:22 31° 87° (E) 1,111 8.5 -27.5°
Drops below altitude 10° 23:44:48 10° 94° (E) 1,999 9.8 -27.4°
Sets 23:47:07 0° 97° (E) 2,902 10.7 -27.2°
